sat.trackr.live / text

‹ back to catalog

STARLINK-37217

NORAD 68335 · 2026-059Q

PAYLOAD ACTIVE UNKNOWN

§ Identity

Operator
Country
US
Launch date
2026-03-22
Launch site
AFETR
Launch vehicle
Mass (kg)
RCS (m²)

Purposes: comms

External: N2YO · Heavens-Above · Gunter

§ Orbital elements

Epoch: 2026-05-24T20:09:07.647840Z

Period
92.94 min
Inclination
53.1590°
Eccentricity
0.0001084
Mean motion
15.49329951 rev/d
Perigee alt
417.9 km
Apogee alt
419.4 km
Semi-major
6,796.8 km
B*
8.5562e-4
RAAN
350.3482°
Arg perigee
88.9576°
Mean anomaly
271.1557°
Rev number
989

§ Raw data

STARLINK-372171 68335U 26059Q   26144.83967185  .00047462  00000+0  85562-3 0  99922 68335  53.1590 350.3482 0001084  88.9576 271.1557 15.49329951  9893

JSON: /api/v1/satellites/68335 · /tle

For live sub-satellite position, see the globe view (requires WebGL).

§ Visibility from observer

Set your observer location to see the next 7 days of passes ≥ 10°. The values pass through the URL so the page stays shareable.

No JS? Fill the form by hand. The geolocation button needs JavaScript.